DateTimeUTC,F1_A11,F1_S11,BsB_S11,BsG_S11,BsR_S11,BbsB_S11,BbsG_S11,BbsR_S11,BaB_A11,BaG_A11,BaR_A11,Tu_S11,T_S11,Uu_S11,U_S11,P_S11,T1_A11
2021-07-31T21:00:00Z,00000200,20000000,,,,,,,-000.13,0000.09,0000.10,19.3,26.1,10.4,06.9,0679.9,31.1
2021-07-31T21:01:00Z,00000200,20000000,,,,,,,-000.11,-000.23,-000.18,19.3,26.1,10.4,06.9,0679.8,31.1
2021-07-31T21:02:00Z,00000200,20000000,,,,,,,0000.36,0000.14,0000.17,19.3,26.1,10.5,06.9,0679.8,31.1
2021-07-31T21:03:00Z,00000200,60000000,,,,,,,0000.06,0000.53,0000.20,19.3,26.1,10.6,07.0,0679.8,31.1
2021-07-31T21:04:00Z,00000200,40000000,0001.05,0001.04,0000.34,0000.58,0000.16,0000.04,0000.56,0000.25,0000.48,19.4,25.9,10.5,07.1,0680.7,31.0
2021-07-31T21:05:00Z,00000200,00000000,0001.23,0000.86,0000.50,0000.50,0000.17,0000.19,0000.46,0000.03,0000.25,19.5,25.9,10.7,07.2,0680.8,31.0
2021-07-31T21:06:00Z,00000200,00000000,0002.33,0001.26,0000.80,-000.02,0000.25,0000.21,0000.49,0000.57,0000.17,19.5,25.8,10.6,07.2,0680.8,31.1
2021-07-31T21:07:00Z,00000200,00000000,0001.34,0001.56,0000.78,0000.60,0000.14,-000.15,0000.68,0000.92,0000.51,19.5,25.8,10.7,07.3,0680.8,31.0
2021-07-31T21:08:00Z,00000200,00000000,0002.61,0001.58,0000.78,-000.03,0000.31,0000.14,0000.39,0000.12,0000.29,19.5,25.8,10.7,07.3,0680.8,31.1
2021-07-31T21:09:00Z,00000200,00000000,0001.90,0001.49,0001.02,0000.46,0000.12,0000.19,0000.50,0000.50,0000.41,19.5,25.8,10.8,07.4,0680.8,31.0
2021-07-31T21:10:00Z,00000200,00000000,0001.91,0001.67,0000.74,-000.00,0000.09,0000.40,0000.65,0000.63,0000.49,19.5,25.8,10.8,07.4,0680.8,31.0
2021-07-31T21:11:00Z,00000200,00000000,0002.23,0001.54,0001.20,0000.17,0000.52,0000.35,0000.75,0000.46,0000.47,19.5,25.8,10.9,07.4,0680.8,31.1
2021-07-31T21:12:00Z,00000200,00000000,0001.94,0001.73,0000.69,-000.14,-000.10,0000.11,0000.31,0000.60,0000.23,19.5,25.8,11.0,07.5,0680.8,31.0
2021-07-31T21:13:00Z,00000200,00000000,0002.39,0001.44,0001.21,0000.28,0000.38,0000.55,0000.85,0000.44,0000.47,19.5,25.8,11.0,07.5,0680.9,31.0
2021-07-31T21:14:00Z,00000200,00010000,0002.37,0001.64,0000.72,0000.59,0000.19,0000.12,0000.34,0000.21,0000.50,19.4,25.8,11.0,07.5,0680.8,31.0
2021-07-31T21:15:00Z,00000200,00000000,0002.21,0001.68,0000.81,-000.36,0000.26,0000.12,0000.77,0001.11,0000.45,19.4,25.8,11.0,07.5,0680.8,31.0
2021-07-31T21:16:00Z,00000200,00000000,0002.16,0001.38,0000.44,0000.38,0000.37,0000.19,0000.42,0000.09,0000.30,19.4,25.8,11.1,07.5,0680.8,31.1
2021-07-31T21:17:00Z,00000200,00000000,0001.99,0001.55,0000.69,0000.42,0000.44,-000.15,0000.58,0000.54,0000.24,19.4,25.8,11.1,07.6,0680.8,31.1
2021-07-31T21:18:00Z,00000200,00000000,0001.98,0001.29,0000.81,-000.40,0000.41,0000.44,0000.73,0000.98,0000.69,19.4,25.8,11.1,07.6,0680.8,31.1
2021-07-31T21:19:00Z,00000200,00000000,0002.01,0001.20,0000.68,-000.07,0000.16,0000.14,0000.54,0000.06,0000.43,19.4,25.8,11.2,07.6,0680.8,31.1
2021-07-31T21:20:00Z,00000200,00000000,0001.85,0001.22,0000.62,0000.45,0000.28,0000.50,0000.32,0000.70,0000.18,19.4,25.7,11.2,07.6,0680.8,31.0
2021-07-31T21:21:00Z,00000200,00000000,0002.10,0001.99,0000.88,0000.63,0000.04,0000.28,0000.46,0000.70,0000.28,19.4,25.8,11.2,07.6,0680.8,31.1
2021-07-31T21:22:00Z,00000200,00000000,0002.50,0001.61,0001.03,-000.21,0000.00,0000.47,0000.58,0000.27,0000.70,19.4,25.7,11.3,07.7,0680.8,31.0
2021-07-31T21:23:00Z,00000200,00000000,0003.01,0001.45,0001.22,0000.15,0000.12,0000.26,0000.86,0000.64,0000.28,19.4,25.7,11.4,07.7,0680.8,31.0
2021-07-31T21:24:00Z,00000200,00000000,0002.92,0001.90,0000.93,0000.48,0000.60,0000.22,0000.64,0000.96,0000.44,19.4,25.7,11.3,07.7,0680.8,31.1
2021-07-31T21:25:00Z,00000200,00000000,0003.17,0001.93,0001.18,0000.02,0000.23,0000.30,0000.83,0000.52,0000.56,19.4,25.7,11.4,07.7,0680.8,31.1
2021-07-31T21:26:00Z,00000200,00000000,0003.00,0002.00,0001.29,0000.79,0000.23,0000.16,0000.84,0000.71,0000.68,19.4,25.7,11.4,07.7,0680.8,31.1
2021-07-31T21:27:00Z,00000200,00000000,0002.81,0002.20,0001.27,0000.23,0000.30,0000.45,0000.60,0000.60,0000.45,19.4,25.7,11.4,07.8,0680.8,31.1
2021-07-31T21:28:00Z,00000200,00000000,0002.64,0002.13,0001.64,0000.54,0000.28,0000.41,0001.08,0000.82,0000.78,19.4,25.7,11.4,07.7,0680.8,31.1
2021-07-31T21:29:00Z,00000200,00000000,0003.62,0002.17,0001.48,0000.67,0000.26,0000.56,0000.83,0000.82,0000.43,19.4,25.7,11.3,07.7,0680.7,31.1
2021-07-31T21:30:00Z,00000200,00000000,0003.17,0002.23,0001.16,0000.76,0000.34,0000.40,0000.88,0000.63,0000.55,19.4,25.7,11.4,07.7,0680.8,31.1
2021-07-31T21:31:00Z,00000200,00000000,0003.40,0002.93,0001.88,0000.45,0000.22,0000.50,0000.96,0000.61,0000.61,19.4,25.7,11.4,07.7,0680.8,31.1
2021-07-31T21:32:00Z,00000200,00000000,0003.80,0002.76,0001.33,0000.46,0000.69,0000.35,0001.07,0001.26,0000.59,19.4,25.7,11.4,07.8,0680.8,31.0
2021-07-31T21:33:00Z,00000200,00000000,0003.34,0002.85,0001.73,-000.07,0000.36,0000.34,0000.78,0000.80,0000.53,19.4,25.7,11.4,07.8,0680.8,31.0
2021-07-31T21:34:00Z,00000200,00000000,0003.98,0002.31,0001.71,0000.55,0000.40,0000.17,0001.14,0000.70,0001.09,19.4,25.7,11.4,07.7,0680.8,31.0
2021-07-31T21:35:00Z,00000200,00000000,0004.01,0002.63,0001.53,0000.78,0000.31,0000.42,0000.97,0001.14,0000.62,19.4,25.7,11.3,07.7,0680.8,31.0
2021-07-31T21:36:00Z,00000200,00000000,0003.50,0002.65,0001.69,0000.63,0000.29,0000.45,0000.94,0000.72,0000.43,19.4,25.7,11.3,07.7,0680.8,31.0
2021-07-31T21:37:00Z,00000200,00000000,0003.33,0002.59,0001.47,0000.54,0000.44,-000.12,0000.93,0000.97,0000.92,19.4,25.7,11.3,07.7,0680.7,31.0
2021-07-31T21:38:00Z,00000200,00000000,0003.64,0002.27,0001.83,0000.41,0000.29,0000.43,0000.96,0001.10,0000.89,19.4,25.7,11.4,07.8,0680.7,31.0
2021-07-31T21:39:00Z,00000200,00000000,0004.69,0002.85,0001.84,0000.94,0000.06,0000.02,0001.09,0000.93,0000.57,19.4,25.7,11.3,07.7,0680.7,31.0
2021-07-31T21:40:00Z,00000200,00000000,0004.45,0002.87,0001.80,0000.94,0000.11,0000.31,0000.90,0000.90,0000.51,19.4,25.7,11.3,07.7,0680.7,31.0
2021-07-31T21:41:00Z,00000200,00000000,0004.13,0003.06,0001.77,0001.18,0000.43,0000.53,0001.32,0001.01,0001.11,19.4,25.7,11.4,07.8,0680.8,31.0
2021-07-31T21:42:00Z,00000200,00000000,0004.36,0002.62,0001.87,0001.44,0000.41,0000.78,0001.25,0000.95,0000.31,19.4,25.6,11.4,07.8,0680.7,31.1
2021-07-31T21:43:00Z,00000200,00000000,0004.36,0002.91,0001.16,0000.55,0000.42,0000.39,0000.87,0001.12,0000.86,19.4,25.6,11.4,07.8,0680.7,31.0
2021-07-31T21:44:00Z,00000200,00000000,0004.27,0002.90,0001.62,0000.30,0000.53,0000.37,0001.12,0000.73,0000.74,19.3,25.6,11.5,07.8,0680.7,31.0
2021-07-31T21:45:00Z,00000200,00000000,0005.14,0003.46,0001.48,0000.27,0000.46,0000.44,0000.63,0001.09,0000.78,19.3,25.6,11.5,07.8,0680.7,31.0
2021-07-31T21:46:00Z,00000200,00000000,0004.54,0003.17,0001.67,0001.17,0000.34,0000.03,0001.06,0000.94,0000.73,19.3,25.6,11.4,07.8,0680.7,31.1
2021-07-31T21:47:00Z,00000200,00000000,0004.63,0003.04,0001.90,0001.21,0000.65,0000.28,0001.39,0000.99,0000.89,19.3,25.6,11.5,07.8,0680.7,31.0
2021-07-31T21:48:00Z,00000200,00000000,0004.12,0003.26,0001.53,0000.13,0000.53,0000.31,0001.44,0001.23,0001.08,19.3,25.6,11.5,07.8,0680.7,31.0
2021-07-31T21:49:00Z,00000200,00000000,0004.50,0003.23,0001.79,0000.74,0000.70,0000.42,0001.10,0000.94,0000.69,19.3,25.6,11.5,07.8,0680.7,31.0
2021-07-31T21:50:00Z,00000200,00000000,0004.35,0002.98,0001.40,0000.37,0000.01,0000.32,0001.19,0001.01,0000.88,19.3,25.6,11.5,07.8,0680.7,31.0
2021-07-31T21:51:00Z,00000200,00000000,0004.72,0003.20,0001.91,0000.31,0000.37,0000.51,0000.84,0000.98,0000.40,19.3,25.6,11.5,07.8,0680.7,31.0
2021-07-31T21:52:00Z,00000200,00000000,0004.04,0003.49,0002.07,0000.59,0000.77,0000.32,0001.31,0001.31,0000.71,19.3,25.6,11.4,07.8,0680.7,31.0
2021-07-31T21:53:00Z,00000200,00000000,0004.94,0003.28,0002.06,0000.54,0000.46,0000.48,0001.42,0001.03,0001.14,19.3,25.6,11.4,07.8,0680.7,31.0
2021-07-31T21:54:00Z,00000200,00000000,0004.84,0003.45,0001.88,0000.81,0000.24,0000.25,0000.99,0000.89,0000.82,19.3,25.6,11.4,07.8,0680.7,31.0
2021-07-31T21:55:00Z,00000200,00000000,0005.21,0003.53,0002.04,0000.68,0000.37,0000.31,0001.45,0001.43,0000.67,19.3,25.5,11.5,07.8,0680.7,31.0
2021-07-31T21:56:00Z,00000200,00000000,0004.93,0003.34,0001.76,0000.56,0000.67,0000.12,0001.19,0001.33,0000.90,19.3,25.6,11.6,07.9,0680.7,31.1
2021-07-31T21:57:00Z,00000200,40000000,,,,,,,-000.02,-000.19,0000.47,19.3,25.6,11.6,07.9,0680.7,31.0
2021-07-31T21:58:00Z,00000200,60000000,,,,,,,0000.48,0000.30,0000.05,19.1,25.7,11.5,07.6,0679.7,31.0
2021-07-31T21:59:00Z,00000200,20000000,,,,,,,-000.06,0000.02,0000.11,19.0,25.8,11.5,07.6,0679.7,31.0
